Orbital Elements at Epoch 2459200.5 (2020-Dec-17.0) TDB
Reference: JPL 24 (heliocentric ecliptic J2000)
Element | Value | Uncertainty (1-sigma) | Units |
e | .03364763549149334 | 3.5353e-08 | |
a | 2.849254584341241 | 1.7391e-08 | au |
q | 2.753383904664861 | 1.038e-07 | au |
i | 1.3211908326443 | 4.0811e-06 | deg |
node | 333.0346690090569 | 0.00017186 | deg |
peri | 149.9958192368963 | 0.00018382 | deg |
M | 7.677564730769578 | 6.3906e-05 | deg |
tp | 2459163.035814391210 (2020-Nov-09.53581439) | 0.00031184 | TDB |
period | 1756.690733600946 4.81 | 1.6083e-05 4.403e-08 | d yr |
n | .2049307787159869 | 1.8762e-09 | deg/d |
Q | 2.945125264017622 | 1.7976e-08 | au |
|
| | Orbit Determination Parameters
Additional Information
|